Weather History for Skagway, AK

Change the Weather History Date:

Sunday, October 30, 2011

  Actual Average Record
Temperature  
Mean Temperature 42 °F -  
Max Temperature 44 °F 40 °F 51 °F (1993)
Min Temperature 39 °F 32 °F 13 °F (1984)
Degree Days  
Heating Degree Days 24    
Moisture  
Dew Point 38 °F    
Average Humidity 86    
Maximum Humidity 93    
Minimum Humidity 74    
Precipitation  
Precipitation 0.17 in - - ()
Sea Level Pressure  
Sea Level Pressure 29.42 in    
Wind  
Wind Speed 12 mph (SSW)    
Max Wind Speed 32 mph    
Max Gust Speed 43 mph    
Visibility 9 miles    
Events Rain    
Averages and records for this station are not official NWS values.
T = Trace of Precipitation, MM = Missing Value Source: NWS Daily Summary

Daily Weather History Graph

Daily Weather History Graph

Search for Another Location

Airport:

Trip Planner

Search our weather history database for the weather conditions in past years. The results will help you decide how hot, cold, wet, or windy it might be!

Date:

Astronomy

Oct. 30, 2011 Rise Set
Actual Time 8:16 AM AKDT 5:12 PM AKDT
Civil Twilight 7:32 AM AKDT 5:56 PM AKDT
Nautical Twilight 6:43 AM AKDT 6:44 PM AKDT
Astronomical Twilight 5:56 AM AKDT 7:32 PM AKDT
Moon 1:30 PM AKDT (10/30) 8:03 PM AKDT (10/30)
Length of Visible Light 10h 24m
Length of Day
8h 56m
Waxing Crescent, 21% of the Moon is Illuminated
Oct 30
Waxing Crescent
Nov 2
First Quarter
Nov 10
Full
Nov 18
Last Quarter
Nov 24
New

Hourly Weather History & Observations

Time (AKDT) Temp. Windchill Dew Point Humidity Pressure Visibility Wind Dir Wind Speed Gust Speed Precip Events Conditions
12:53 AM 43.0 °F 35.7 °F 36.0 °F 76% 29.30 in 10.0 mi South 15.0 mph 23.0 mph N/A   Mostly Cloudy
1:53 AM 43.0 °F 34.8 °F 37.0 °F 80% 29.32 in 9.0 mi SSW 18.4 mph 26.5 mph 0.01 in Rain Light Rain
2:04 AM 42.8 °F 34.0 °F 37.4 °F 81% 29.31 in 5.0 mi SSW 20.7 mph 28.8 mph 0.00 in Rain Light Rain
2:24 AM 41.0 °F 32.8 °F 37.4 °F 87% 29.31 in 10.0 mi SSW 16.1 mph 21.9 mph 0.01 in Rain Light Rain
2:53 AM 42.1 °F 38.4 °F 37.0 °F 82% 29.32 in 10.0 mi South 5.8 mph - 0.01 in Rain Light Rain
3:19 AM 41.0 °F 38.0 °F 37.4 °F 87% 29.32 in 10.0 mi Variable 4.6 mph - 0.02 in Rain Light Rain
3:34 AM 42.8 °F 39.3 °F 37.4 °F 81% 29.32 in 10.0 mi SSW 5.8 mph - 0.02 in   Overcast
3:53 AM 41.0 °F 38.0 °F 37.0 °F 86% 29.33 in 10.0 mi Variable 4.6 mph 19.6 mph 0.02 in   Overcast
4:53 AM 44.1 °F 36.8 °F 37.0 °F 76% 29.31 in 10.0 mi South 16.1 mph 24.2 mph 0.01 in   Overcast
5:53 AM 43.0 °F 34.8 °F 37.0 °F 80% 29.33 in 10.0 mi SSW 18.4 mph 27.6 mph 0.00 in   Overcast
6:53 AM 42.1 °F 33.6 °F 37.0 °F 82% 29.34 in 10.0 mi South 18.4 mph 26.5 mph 0.00 in   Overcast
7:53 AM 43.0 °F 34.5 °F 37.0 °F 80% 29.36 in 10.0 mi SSW 19.6 mph 26.5 mph N/A   Overcast
8:53 AM 43.0 °F 35.4 °F 36.0 °F 76% 29.37 in 10.0 mi SSW 16.1 mph 27.6 mph N/A   Overcast
9:53 AM 43.0 °F 36.4 °F 37.0 °F 80% 29.39 in 10.0 mi SSW 12.7 mph - 0.00 in   Overcast
10:53 AM 43.0 °F 41.3 °F 37.0 °F 80% 29.39 in 10.0 mi Variable 3.5 mph - N/A   Overcast
11:33 AM 42.8 °F 37.0 °F 37.4 °F 81% 29.40 in 10.0 mi SSW 10.4 mph - 0.00 in Rain Light Rain
11:53 AM 43.0 °F 37.2 °F 37.9 °F 82% 29.40 in 10.0 mi SSW 10.4 mph - 0.00 in Rain Light Rain
12:35 PM 42.8 °F 36.6 °F 37.4 °F 81% 29.40 in 10.0 mi SSW 11.5 mph - 0.00 in Rain Light Rain
12:53 PM 42.1 °F 36.6 °F 37.9 °F 85% 29.40 in 10.0 mi SSW 9.2 mph - 0.00 in   Mostly Cloudy
1:53 PM 42.1 °F - 37.0 °F 82% 29.40 in 10.0 mi Calm Calm - 0.00 in Rain Light Rain
2:53 PM 41.0 °F - 39.0 °F 93% 29.41 in 10.0 mi Calm Calm - 0.01 in Rain Light Rain
3:53 PM 41.0 °F 38.0 °F 37.9 °F 89% 29.42 in 10.0 mi SW 4.6 mph - 0.01 in Rain Light Rain
4:11 PM 41.0 °F 37.1 °F 39.2 °F 93% 29.43 in 6.0 mi SSW 5.8 mph - 0.01 in Rain Light Rain
4:19 PM 41.0 °F 38.0 °F 39.2 °F 93% 29.43 in 5.0 mi SSW 4.6 mph - 0.01 in Rain Light Rain
4:53 PM 41.0 °F 39.0 °F 39.0 °F 93% 29.44 in 6.0 mi SSW 3.5 mph - 0.05 in Rain Light Rain
5:04 PM 41.0 °F 39.0 °F 39.2 °F 93% 29.44 in 6.0 mi SSW 3.5 mph - 0.00 in Rain Light Rain
5:32 PM 41.0 °F 37.1 °F 39.2 °F 93% 29.46 in 8.0 mi SSW 5.8 mph - 0.02 in Rain Light Rain
5:53 PM 41.0 °F 37.1 °F 39.0 °F 93% 29.47 in 10.0 mi SSW 5.8 mph - 0.02 in Rain Light Rain
6:00 PM 41.0 °F 37.1 °F 39.2 °F 93% 29.47 in 10.0 mi SSW 5.8 mph - 0.00 in Rain Light Rain
6:09 PM 41.0 °F 35.2 °F 37.4 °F 87% 29.47 in 10.0 mi SSW 9.2 mph - 0.01 in Rain Light Rain
6:17 PM 41.0 °F 35.2 °F 37.4 °F 87% 29.48 in 10.0 mi SSW 9.2 mph - 0.01 in Rain Light Rain
6:25 PM 39.2 °F 32.5 °F 37.4 °F 93% 29.48 in 10.0 mi SSW 10.4 mph - 0.01 in Rain Light Rain
6:41 PM 39.2 °F 31.6 °F 37.4 °F 93% 29.49 in 10.0 mi SSW 12.7 mph - 0.02 in Rain Light Rain
6:51 PM 39.2 °F 32.0 °F 37.4 °F 93% 29.50 in 10.0 mi SSW 11.5 mph - 0.02 in Rain Light Rain
6:53 PM 39.9 °F 32.5 °F 37.9 °F 93% 29.50 in 10.0 mi SSW 12.7 mph - 0.02 in Rain Light Rain
7:53 PM 39.9 °F 31.4 °F 36.0 °F 86% 29.54 in 10.0 mi SSW 16.1 mph - 0.00 in   Overcast
8:53 PM 39.9 °F 32.9 °F 37.0 °F 89% 29.56 in 10.0 mi South 11.5 mph 21.9 mph N/A   Overcast
9:53 PM 41.0 °F 32.2 °F 37.0 °F 86% 29.58 in 10.0 mi SSW 18.4 mph 25.3 mph N/A   Overcast
10:53 PM 42.1 °F 34.5 °F 37.9 °F 85% 29.60 in 10.0 mi SSW 15.0 mph 23.0 mph 0.00 in Rain Light Rain
11:53 PM 43.0 °F 32.2 °F 35.1 °F 74% 29.60 in 10.0 mi SW 32.2 mph 42.6 mph 0.01 in   Overcast